Lapse_Rate
7.4 7.3 7.2 7.1 7.1 6.9 6.7 6.3 6.0 6.1 5.0 6.2 6.2 6.9 6.4 6.2 6.3 6.3 6.2 6.2 6.2 6.3 6.2 6.2 6.1 5.8 5.7 5.6 5.5 5.6 5.6 5.7
7.5 7.3 7.0 6.9 6.9 7.0 6.3 6.1 6.0 5.9 5.9 5.8 6.0 6.1 5.9 6.1 6.3 6.3 6.3 6.4 6.5 6.5 6.4 6.1 5.8 5.7 5.8 5.9 5.9 6.0 6.0 6.0
7.6 7.4 7.4 7.3 7.0 6.9 6.7 6.5 6.1 5.9 5.8 5.8 6.0 6.0 6.1 6.1 6.0 6.1 6.4 6.4 6.3 6.2 6.1 6.1 6.2 6.3 6.3 6.2 6.2 6.1 6.0 5.9
7.6 7.5 7.4 7.3 7.1 6.7 6.4 6.3 6.3 6.0 5.6 5.8 6.0 6.1 6.2 6.2 6.4 6.5 6.4 6.4 6.2 6.2 6.3 6.2 6.0 5.8 5.6 5.5 5.4 5.4 5.2 5.1
7.3 7.3 7.5 7.4 7.2 6.8 6.4 6.3 6.1 5.9 5.9 6.0 5.9 6.0 6.1 6.1 6.3 6.4 6.4 6.2 6.1 5.9 5.7 5.5 5.3 5.1 5.0 4.9 4.6 4.5 4.4 4.4
7.1 7.2 7.0 7.0 6.9 6.4 5.9 5.9 5.9 6.0 6.3 6.7 6.1 6.2 6.3 6.5 6.6 6.4 6.2 5.8 5.4 5.3 5.1 4.8 4.6 4.5 4.5 4.3 4.1 3.8 3.7 3.7
7.0 7.0 6.8 6.6 6.7 6.6 6.5 6.1 6.2 6.6 6.3 6.2 6.1 6.3 6.4 6.4 6.2 5.8 5.3 5.1 5.0 4.8 4.7 4.6 4.5 4.4 4.2 3.8 3.7 3.7 3.7 3.9
6.8 6.8 6.7 6.8 6.2 6.2 6.3 6.2 6.2 6.1 6.0 6.3 6.4 6.3 6.2 5.9 5.5 5.2 5.0 4.9 4.8 4.8 4.7 4.5 4.4 4.1 4.0 4.0 3.9 3.9 3.7 3.9
6.5 6.5 6.4 6.1 6.2 6.3 6.2 5.9 5.9 5.8 5.8 6.0 6.0 5.8 5.7 5.5 5.3 5.2 5.1 5.0 4.9 4.7 4.6 4.4 4.2 4.1 4.0 3.8 3.6 3.7 4.0 4.1
6.3 6.2 6.3 6.2 6.1 6.1 5.9 5.7 5.8 5.9 6.0 5.9 5.7 5.6 5.6 5.5 5.4 5.3 5.1 5.0 4.7 4.6 4.3 4.2 4.0 3.6 3.4 3.5 3.6 4.0 4.1 4.4
6.2 6.3 6.3 6.2 6.1 6.0 5.7 5.6 5.7 5.9 6.0 5.9 6.0 5.9 5.7 5.6 5.3 5.1 4.8 4.6 4.3 4.1 3.9 3.7 3.6 3.6 3.7 3.9 4.0 4.4 4.7 5.5
6.5 6.4 6.3 6.2 6.1 5.8 5.7 5.8 5.8 6.0 6.0 5.9 5.8 5.8 5.6 5.4 5.0 4.7 4.5 4.3 4.1 4.0 4.0 3.9 3.9 4.1 4.1 4.3 4.7 5.2 5.8 6.0
6.4 6.3 6.3 6.1 5.9 5.7 5.8 6.0 6.0 5.9 5.7 5.9 5.9 5.7 5.5 5.1 4.8 4.6 4.4 4.3 4.2 4.1 4.1 4.2 4.3 4.4 4.5 5.2 5.6 6.2 6.5 6.3
6.1 6.1 6.1 5.9 5.7 5.8 5.9 6.0 5.8 5.8 5.9 5.8 5.7 5.4 5.0 4.9 4.6 4.5 4.5 4.4 4.3 4.3 4.3 4.5 4.7 5.0 5.6 6.1 6.6 6.7 6.7 6.6
6.1 6.0 5.8 5.5 5.7 5.9 5.7 6.0 5.8 5.6 5.6 5.5 5.2 5.2 5.1 4.9 4.8 4.7 4.5 4.5 4.4 4.4 4.5 4.8 5.3 6.1 6.5 6.8 6.9 6.8 6.7 6.6
6.0 5.9 5.5 5.5 5.6 5.8 6.0 5.8 5.4 5.4 5.4 5.3 5.4 5.3 5.1 5.0 4.8 4.7 4.8 4.6 4.6 4.6 4.8 5.4 6.2 6.6 6.8 7.1 7.0 6.7 6.6 6.7
6.0 5.7 5.7 5.8 5.9 5.8 5.7 5.3 5.4 5.4 5.5 5.5 5.4 5.3 5.1 4.8 4.7 4.9 4.8 4.7 4.8 4.8 5.4 6.0 6.5 6.6 6.9 7.1 6.9 6.8 6.8 6.9
5.9 5.7 5.9 5.8 5.8 5.8 5.5 5.5 5.6 5.8 5.7 5.5 5.3 5.1 4.9 4.9 5.0 4.9 4.8 4.9 5.1 5.3 6.0 6.4 6.6 6.6 7.0 7.0 7.0 7.0 6.9 6.8
5.8 5.8 5.9 5.9 5.8 5.6 5.6 5.6 5.7 5.6 5.5 5.4 5.3 5.2 5.2 5.1 4.9 4.9 5.2 5.2 5.6 6.0 6.4 6.6 6.7 6.9 7.0 7.0 7.1 7.1 7.0 6.9
Wind_Speed
5 6 8 11 13 15 14 11 8 9 7 9 7 5 6 5 7 10 9 10 10 9 8 8 7 6 5 5 5 5 4 4
6 8 11 15 14 15 11 12 9 9 7 5 3 3 3 4 7 9 9 9 9 10 8 6 6 4 4 4 4 6 5 5
9 9 10 11 13 12 11 11 13 11 9 6 3 4 2 5 7 6 8 8 7 6 4 4 4 4 5 5 5 5 5 4
10 10 9 8 10 10 12 13 12 8 4 5 5 5 5 3 3 3 4 4 4 3 3 2 2 4 4 5 4 4 5 4
9 12 10 11 9 7 9 9 9 7 7 4 4 2 2 2 3 2 2 2 2 1 1 2 3 3 4 4 3 3 4 5
10 10 10 8 9 9 8 8 7 6 4 4 2 3 4 3 3 2 2 2 3 4 4 6 6 5 5 4 3 3 3 4
8 5 5 4 3 5 4 7 5 4 5 5 5 6 5 3 2 2 2 3 5 6 8 8 7 7 6 6 5 5 4 4
10 10 10 8 5 7 5 5 6 5 6 6 5 5 3 2 3 3 4 4 4 5 7 8 7 8 7 6 5 6 7 6
9 7 7 6 5 4 3 5 5 5 5 5 3 3 2 3 4 4 4 5 6 10 9 10 9 7 6 5 5 4 5 7
10 8 6 5 4 3 4 5 5 4 4 3 1 3 5 5 7 5 5 7 8 10 12 11 10 8 7 4 5 7 7 10
6 5 6 5 4 3 3 3 4 3 3 4 4 4 4 3 3 6 7 8 11 11 12 11 10 8 6 7 7 6 9 7
7 7 6 5 4 4 4 4 6 4 3 2 2 2 3 4 4 6 6 9 11 10 11 10 9 5 6 5 5 7 8 7
8 7 6 5 5 6 6 4 4 3 2 3 2 3 4 4 5 6 8 8 12 12 10 6 4 5 4 4 5 6 6 5
8 7 6 6 7 7 6 6 5 4 2 2 3 2 2 4 5 6 8 10 11 13 7 6 4 8 8 5 5 2 3 4
8 7 6 6 7 6 6 4 3 1 2 2 1 1 2 4 5 7 10 11 11 10 8 7 6 5 5 4 1 1 3 6
8 8 6 6 7 7 5 3 1 2 3 3 2 1 3 4 7 8 10 10 10 10 6 4 5 2 1 1 2 4 7 9
9 8 8 8 8 6 4 1 2 2 4 3 2 2 4 6 8 9 9 8 9 9 4 1 2 3 6 8 6 5 7 8
10 8 9 8 6 4 2 2 2 3 3 2 1 3 6 7 8 9 8 8 7 3 3 1 2 2 6 6 6 5 7 9
8 9 7 6 4 2 1 2 2 2 2 2 2 4 6 7 8 9 7 6 6 3 1 1 1 3 4 5 6 6 7 9
Wind_Direction
51 92 107 115 123 122 119 119 117 84 95 127 144 132 156 144 98 94 96 88 84 85 72 52 32 21 16 4 348 344 332 340
92 100 112 122 135 141 132 130 146 137 143 154 156 155 138 98 84 81 87 85 72 62 58 45 36 31 19 8 341 336 336 347
107 107 123 139 143 142 147 146 150 160 162 164 129 143 132 102 87 87 80 75 67 73 75 63 43 10 3 359 356 337 328 358
122 121 120 123 130 144 150 154 157 163 158 96 99 116 120 142 134 108 87 75 62 59 74 54 14 355 352 347 345 342 330 334
138 139 139 141 138 132 130 134 137 131 144 164 187 197 182 109 121 127 98 28 10 342 287 298 308 307 312 321 324 317 304 312
156 156 146 143 141 139 134 134 138 133 151 127 133 90 89 107 132 175 242 285 295 286 275 288 288 287 285 272 264 257 243 289
165 173 162 143 97 115 126 130 117 108 93 83 98 117 128 147 201 257 280 289 286 274 273 274 276 272 259 258 253 237 249 265
174 180 183 178 151 129 149 138 120 103 97 98 116 128 150 225 255 281 299 306 295 298 285 275 275 281 281 283 283 295 297 292
185 190 187 167 147 129 157 138 129 118 106 120 115 135 229 275 308 309 293 297 297 304 310 300 291 274 267 260 273 289 310 297
184 183 172 142 128 129 171 149 119 124 145 135 135 13 340 319 314 308 312 317 319 314 309 301 291 271 263 270 290 294 294 287
159 144 128 115 112 126 116 118 144 126 75 40 16 343 311 304 316 331 335 329 327 317 311 301 290 280 271 288 281 287 294 285
131 124 118 118 112 113 126 122 84 71 52 33 340 331 20 16 5 1 353 330 327 320 315 306 299 294 312 296 297 317 292 296
139 136 137 126 107 109 95 93 101 83 71 84 74 42 39 28 7 348 342 327 321 322 316 303 298 318 285 312 288 289 299 296
146 146 140 128 116 96 85 78 97 103 94 51 49 53 23 2 346 334 330 329 327 322 296 272 299 306 299 275 294 288 304 310
155 149 131 117 111 114 112 144 119 85 23 356 303 336 347 339 330 332 335 331 325 323 300 285 307 292 288 298 255 304 313 309
165 153 145 141 141 143 151 149 169 6 321 280 275 289 327 333 336 332 333 330 329 323 311 304 302 295 30 34 11 339 327 321
163 159 149 147 152 144 159 149 352 330 304 273 269 309 317 336 337 329 324 329 344 348 342 72 55 51 63 61 15 343 333 323
169 165 157 150 156 154 119 345 323 306 291 244 280 310 332 332 322 320 326 333 322 1 331 5 83 67 63 49 27 344 330 327
165 157 154 160 147 123 341 285 314 320 270 281 313 327 314 317 322 325 324 336 321 315 242 158 132 75 39 25 7 338 332 332